Regional Weather Roundup
Issued by NWS

Home | Current Version | Previous Version | Text Only | Print | Product List | Glossary On
Versions: 1 2 3 4 5 6 7 8 9 10 11 12 13 14 15 16 17 18 19 20 21 22 23 24 25 26 27 28 29 30 31 32 33 34 35 36 37 38 39 40 41 42 43 44 45 46 47 48 49 50
000
ASUS43 KTOP 200759
RWRKS

WEATHER ROUNDUP FOR KANSAS
NATIONAL WEATHER SERVICE GOODLAND KS
300 AM CDT SUN AUG 20 2017

NOTE:  "FAIR" INDICATES FEW OR NO CLOUDS BELOW 12,000 FEET WITH NO
SIGNIFICANT WEATHER AND/OR OBSTRUCTIONS TO VISIBILITY.

KSZ001>006-013>018-027>032-041>047-200900-
NORTHWEST KANSAS

CITY           SKY/WX    TMP DP  RH WIND       PRES   REMARKS
GOODLAND       CLEAR     71  51  49 S16       29.93F
HAYS           CLOUDY    77  65  66 SW14      29.89F
HILL CITY      CLEAR     75  64  68 SW7       29.89F
RUSSELL        PTCLDY    76  66  71 S13       29.87F
$$

KSZ061>065-074>080-084>089-200900-
SOUTHWEST KANSAS

CITY           SKY/WX    TMP DP  RH WIND       PRES   REMARKS
DODGE CITY     PTCLDY    75  65  70 SW14      29.95F
ELKHART          N/A     70  60  70 SW6         N/A
GARDEN CITY    PTCLDY    72  63  73 S9        29.95F
GREAT BEND     CLOUDY    75  68  78 S8        29.91F
LIBERAL        MOCLDY    71  66  84 S8        29.99F
$$

KSZ066>073-081>083-090>101-200900-
SOUTHEAST KANSAS

CITY           SKY/WX    TMP DP  RH WIND       PRES   REMARKS
CHANUTE        CLOUDY    77  66  68 SW22G29   29.95R
COFFEYVILLE    CLOUDY    79  76  90 S8        29.92F
HUTCHINSON     CLEAR     79  69  71 S7        29.90F
MEDICINE LODGE   N/A     75  68  78 S5        29.92F
NEWTON         CLEAR     79  70  74 S12       29.92F
PARSONS        TSTM      79  74  84 W5        29.96R
WICHITA INTL   PTCLDY    77  71  82 S7        29.91F
WICHITA JABRA  CLEAR     79  72  79 SW10      29.91F
WICHITA MCCONL CLEAR     77  69  77 SW9       29.92F
WINFIELD       CLEAR     76  71  85 S8        29.93F
$$

KSZ007>012-019>026-033>040-048>060-102>105-200900-
NORTHEAST KANSAS

CITY           SKY/WX    TMP DP  RH WIND       PRES   REMARKS
CONCORDIA      CLOUDY    77  67  71 S13       29.88R
EMPORIA        CLEAR     78  75  90 S12       29.92R
LAWRENCE       CLOUDY    79  76  90 S6        29.91R
MANHATTAN      CLOUDY    80  75  84 SW7       29.89R
OLATHE IND     CLOUDY    78  73  84 S8        29.94R
OLATHE EXE     CLOUDY    77  74  90 S7        29.94R
SALINA         PTCLDY    80  69  69 S8        29.88R
TOPEKA BILLARD CLOUDY    81  77  88 S6        29.90R
TOPEKA FORBES  PTCLDY    81  77  88 S8        29.91R
$$




USA.gov is the U.S. government's official web portal to all federal, state and local government web resources and services.